User: anonymous   Login
Location: *
(50.5492°N, 7.7469°E)
Time: 20:56:08
(UTC+00:00)
Language:

IRS-1A Rocket - Orbit

View from above orbital plane
View from above orbital plane
View from above satellite
View from above satellite

Ground track
Ground track

The orbit data is extracted from the following two-line orbital elements,

1 18961U 88021B   19347.48156264  .00000336  00000-0  25369-3 0  9994
2 18961  99.2475  20.5848 0054041 254.2080 239.1779 14.00626574622705
Epoch (UTC): 13 December 2019 11:33:27
Eccentricity: 0.0054041
inclination: 99.2475°
perigee height: 852 km
apogee height: 931 km
right ascension of ascending node: 20.5848°
argument of perigee: 254.2080°
revolutions per day: 14.00626574
mean anomaly at epoch: 239.1779°
orbit number at epoch: 62270

The dashed part of the orbit path shows where the satellite is in the earth's shadow,  

DLR